Terminal Aerodrome Forecast
Issued by NWS

Home | Current Version | Previous Version | Text Only | Print | Product List | Glossary On
Versions: 1 2 3 4 5 6 7 8 9 10 11 12 13 14 15 16 17 18 19 20 21 22 23 24 25 26 27 28 29 30 31 32
000
FTPA31 PHFO 210500
TAFLNY
TAF
PHNY 210531Z 2106/2206 VRB04KT P6SM FEW020 SCT050
      TEMPO 2106/2108 24007KT SCT009 BKN015
     FM212100 24007KT P6SM SCT020 BKN050
     FM220300 30007KT P6SM FEW020 SCT050
      AMD NOT SKED=

USA.gov is the U.S. government's official web portal to all federal, state and local government web resources and services.